| time (UTC) | temp F | wind direction | speed MPH | gust MPH | rain 1hr in | rain 24hr in | rain mn in | humidity % | barometer mb |
| 20260508153503 | 66 | 121 | 0.0 | 2.0 | 0.00 | 0.11 | 0.00 | 56 | 1017.3 |
| 20260508153225 | 65 | 98 | 0.0 | 4.0 | 0.00 | 0.12 | 0.00 | 51 | 1017.4 |
| 20260508152503 | 65 | 100 | 0.0 | 4.0 | 0.00 | 0.12 | 0.00 | 53 | 1017.3 |
| 20260508152004 | 65 | 230 | 0.0 | 2.0 | 0.00 | 0.13 | 0.00 | 53 | 1017.3 |
| 20260508151500 | 65 | 290 | 0.0 | 5.0 | 0.00 | 0.14 | 0.00 | 54 | 1017.3 |
| 20260508151003 | 65 | 65 | 1.0 | 5.0 | 0.00 | 0.14 | 0.00 | 55 | 1017.3 |
| 20260508150503 | 65 | 101 | 0.0 | 5.0 | 0.00 | 0.15 | 0.00 | 56 | 1017.3 |
| 20260508150001 | 64 | 84 | 0.0 | 2.0 | 0.00 | 0.16 | 0.00 | 57 | 1017.2 |
| 20260508145723 | 64 | 90 | 0.0 | 1.0 | 0.00 | 0.17 | 0.00 | 60 | 1017.2 |
| 20260508145225 | 64 | 53 | 0.0 | 5.0 | 0.00 | 0.18 | 0.00 | 59 | 1017.2 |
| 20260508144501 | 64 | 92 | 0.0 | 5.0 | 0.00 | 0.20 | 0.00 | 57 | 1017.3 |
| 20260508144001 | 64 | 161 | 0.0 | 2.0 | 0.00 | 0.21 | 0.00 | 59 | 1017.2 |
| 20260508143724 | 63 | 315 | 0.0 | 4.0 | 0.00 | 0.22 | 0.00 | 58 | 1017.2 |
| 20260508143005 | 63 | 234 | 1.0 | 5.0 | 0.00 | 0.23 | 0.00 | 58 | 1017.2 |
| 20260508142504 | 63 | 49 | 1.0 | 5.0 | 0.00 | 0.23 | 0.00 | 58 | 1017.1 |
| 20260508142223 | 63 | 10 | 0.0 | 4.0 | 0.00 | 0.24 | 0.00 | 59 | 1017.1 |
| 20260508141505 | 63 | 22 | 0.0 | 3.0 | 0.00 | 0.24 | 0.00 | 60 | 1017.1 |
| 20260508141003 | 63 | 237 | 0.0 | 3.0 | 0.00 | 0.24 | 0.00 | 59 | 1017.0 |
| 20260508140504 | 62 | 171 | 0.0 | 4.0 | 0.00 | 0.25 | 0.00 | 62 | 1017.0 |
| 20260508140004 | 62 | 251 | 0.0 | 4.0 | 0.00 | 0.26 | 0.00 | 62 | 1017.0 |
| 20260508135503 | 62 | 216 | 0.0 | 2.0 | 0.00 | 0.26 | 0.00 | 64 | 1017.0 |
| 20260508135003 | 61 | 244 | 0.0 | 5.0 | 0.00 | 0.26 | 0.00 | 65 | 1017.0 |
| 20260508134503 | 61 | 242 | 0.0 | 5.0 | 0.00 | 0.26 | 0.00 | 65 | 1017.0 |
| 20260508134004 | 62 | 212 | 0.0 | 2.0 | 0.00 | 0.26 | 0.00 | 66 | 1017.1 |
| 20260508133722 | 61 | 140 | 0.0 | 2.0 | 0.00 | 0.26 | 0.00 | 66 | 1017.0 |
| 20260508133005 | 60 | 233 | 0.0 | 2.0 | 0.00 | 0.26 | 0.00 | 68 | 1016.9 |
| 20260508132725 | 60 | 100 | 0.0 | 2.0 | 0.00 | 0.26 | 0.00 | 69 | 1016.9 |
| 20260508132004 | 60 | 230 | 0.0 | 2.0 | 0.00 | 0.26 | 0.00 | 71 | 1016.9 |
| 20260508131504 | 59 | 48 | 0.0 | 2.0 | 0.00 | 0.27 | 0.00 | 74 | 1016.9 |
| 20260508131005 | 59 | 73 | 0.0 | 3.0 | 0.00 | 0.27 | 0.00 | 73 | 1016.8 |
| 20260508130502 | 58 | 106 | 0.0 | 3.0 | 0.00 | 0.28 | 0.00 | 74 | 1016.8 |
| 20260508130005 | 58 | 82 | 0.0 | 2.0 | 0.00 | 0.29 | 0.00 | 75 | 1016.8 |
| 20260508125503 | 57 | 24 | 0.0 | 2.0 | 0.00 | 0.29 | 0.00 | 79 | 1016.8 |
| 20260508125005 | 57 | 248 | 0.0 | 3.0 | 0.00 | 0.30 | 0.00 | 82 | 1016.8 |
| 20260508124727 | 56 | 217 | 0.0 | 3.0 | 0.00 | 0.30 | 0.00 | 84 | 1016.7 |
| 20260508124003 | 55 | 44 | 0.0 | 1.0 | 0.00 | 0.30 | 0.00 | 88 | 1016.7 |
| 20260508123723 | 54 | 105 | 0.0 | 1.0 | 0.00 | 0.30 | 0.00 | 92 | 1016.6 |
| 20260508123003 | 53 | 242 | 0.0 | 1.0 | 0.00 | 0.31 | 0.00 | 94 | 1016.6 |
| 20260508122502 | 52 | 74 | 0.0 | 1.0 | 0.00 | 0.31 | 0.00 | 95 | 1016.5 |
| 20260508122002 | 51 | 63 | 0.0 | 1.0 | 0.00 | 0.31 | 0.00 | 96 | 1016.5 |
| 20260508121503 | 51 | 71 | 0.0 | 1.0 | 0.00 | 0.31 | 0.00 | 97 | 1016.4 |
| 20260508121004 | 51 | 225 | 0.0 | 2.0 | 0.00 | 0.31 | 0.00 | 97 | 1016.4 |
| 20260508120503 | 51 | 109 | 0.0 | 2.0 | 0.00 | 0.31 | 0.00 | 98 | 1016.3 |
| 20260508120003 | 50 | 121 | 0.0 | 2.0 | 0.00 | 0.31 | 0.00 | 98 | 1016.3 |
| 20260508115503 | 50 | 100 | 0.0 | 1.0 | 0.00 | 0.31 | 0.00 | 98 | 1016.1 |
| 20260508115004 | 50 | 271 | 0.0 | 0.0 | 0.00 | 0.31 | 0.00 | 98 | 1016.0 |
| 20260508114503 | 50 | 0 | 0.0 | 0.0 | 0.00 | 0.31 | 0.00 | 98 | 1016.1 |
| 20260508114002 | 49 | 0 | 0.0 | 1.0 | 0.00 | 0.31 | 0.00 | 98 | 1016.0 |
| 20260508113504 | 49 | 358 | 0.0 | 1.0 | 0.00 | 0.31 | 0.00 | 98 | 1015.9 |
| 20260508113002 | 49 | 1 | 0.0 | 0.0 | 0.00 | 0.31 | 0.00 | 97 | 1015.7 |
| 20260508112501 | 49 | 1 | 0.0 | 0.0 | 0.00 | 0.31 | 0.00 | 97 | 1015.8 |
| 20260508112001 | 49 | 1 | 0.0 | 0.0 | 0.00 | 0.31 | 0.00 | 97 | 1015.7 |
| 20260508111501 | 48 | 0 | 0.0 | 0.0 | 0.00 | 0.31 | 0.00 | 97 | 1015.6 |
| 20260508111002 | 48 | 0 | 0.0 | 2.0 | 0.00 | 0.31 | 0.00 | 97 | 1015.6 |
| 20260508110501 | 49 | 0 | 0.0 | 2.0 | 0.00 | 0.31 | 0.00 | 97 | 1015.4 |
| 20260508110001 | 48 | 11 | 0.0 | 0.0 | 0.00 | 0.31 | 0.00 | 97 | 1015.5 |
| 20260508105500 | 48 | 282 | 0.0 | 0.0 | 0.00 | 0.31 | 0.00 | 97 | 1015.4 |
| 20260508105002 | 49 | 282 | 0.0 | 0.0 | 0.00 | 0.31 | 0.00 | 97 | 1015.2 |
| 20260508104501 | 49 | 282 | 0.0 | 0.0 | 0.00 | 0.31 | 0.00 | 97 | 1015.2 |
| 20260508104225 | 49 | 236 | 0.0 | 0.0 | 0.00 | 0.31 | 0.00 | 97 | 1015.0 |
| 20260508103501 | 49 | 236 | 0.0 | 0.0 | 0.00 | 0.31 | 0.00 | 97 | 1015.0 |
| 20260508103000 | 49 | 241 | 0.0 | 0.0 | 0.00 | 0.31 | 0.00 | 97 | 1014.9 |
| 20260508102501 | 49 | 241 | 0.0 | 0.0 | 0.00 | 0.31 | 0.00 | 97 | 1014.9 |
| 20260508102001 | 50 | 241 | 0.0 | 0.0 | 0.00 | 0.31 | 0.00 | 97 | 1014.7 |
| 20260508101722 | 50 | 241 | 0.0 | 0.0 | 0.00 | 0.31 | 0.00 | 97 | 1014.6 |
| 20260508101000 | 50 | 241 | 0.0 | 0.0 | 0.00 | 0.31 | 0.00 | 97 | 1014.6 |
| 20260508100504 | 50 | 241 | 0.0 | 0.0 | 0.00 | 0.31 | 0.00 | 97 | 1014.6 |
| 20260508100445 | 50 | 242 | 0.0 | 1.0 | 0.00 | 0.31 | 0.00 | 97 | 1014.5 |
| 20260508095503 | 50 | 241 | 0.0 | 1.0 | 0.00 | 0.31 | 0.00 | 97 | 1014.4 |
| 20260508095222 | 50 | 21 | 0.0 | 1.0 | 0.00 | 0.31 | 0.00 | 97 | 1014.5 |
| 20260508094504 | 50 | 20 | 0.0 | 1.0 | 0.00 | 0.31 | 0.00 | 97 | 1014.5 |
| 20260508094005 | 50 | 20 | 0.0 | 0.0 | 0.00 | 0.31 | 0.00 | 97 | 1014.4 |
| 20260508093946 | 50 | 20 | 0.0 | 0.0 | 0.00 | 0.31 | 0.00 | 97 | 1014.3 |
| 20260508093223 | 50 | 20 | 0.0 | 0.0 | 0.00 | 0.31 | 0.00 | 97 | 1014.4 |
| 20260508092503 | 50 | 20 | 0.0 | 0.0 | 0.00 | 0.31 | 0.00 | 97 | 1014.4 |
| 20260508092003 | 51 | 20 | 0.0 | 0.0 | 0.00 | 0.31 | 0.00 | 97 | 1014.3 |
| 20260508091505 | 51 | 20 | 0.0 | 0.0 | 0.00 | 0.31 | 0.00 | 97 | 1014.2 |
| 20260508091223 | 51 | 20 | 0.0 | 0.0 | 0.00 | 0.31 | 0.00 | 97 | 1014.2 |
| 20260508090503 | 51 | 20 | 0.0 | 0.0 | 0.00 | 0.31 | 0.00 | 97 | 1014.2 |
| 20260508090224 | 51 | 20 | 0.0 | 0.0 | 0.00 | 0.31 | 0.00 | 97 | 1014.1 |
| 20260508085504 | 51 | 20 | 0.0 | 0.0 | 0.00 | 0.31 | 0.00 | 97 | 1014.1 |
| 20260508085220 | 51 | 20 | 0.0 | 0.0 | 0.00 | 0.31 | 0.00 | 97 | 1014.0 |
| 20260508084500 | 51 | 20 | 0.0 | 0.0 | 0.00 | 0.31 | 0.00 | 97 | 1014.0 |
| 20260508084000 | 51 | 20 | 0.0 | 0.0 | 0.00 | 0.32 | 0.00 | 97 | 1014.0 |
| 20260508083502 | 51 | 20 | 0.0 | 0.0 | 0.00 | 0.32 | 0.00 | 97 | 1013.8 |
| 20260508083001 | 52 | 325 | 0.0 | 0.0 | 0.00 | 0.32 | 0.00 | 97 | 1013.8 |
| 20260508082501 | 52 | 325 | 0.0 | 0.0 | 0.00 | 0.32 | 0.00 | 97 | 1013.9 |
| 20260508082000 | 52 | 253 | 0.0 | 0.0 | 0.00 | 0.32 | 0.00 | 97 | 1013.8 |
| 20260508081502 | 52 | 253 | 0.0 | 0.0 | 0.00 | 0.32 | 0.00 | 97 | 1013.7 |
| 20260508081001 | 52 | 253 | 0.0 | 0.0 | 0.00 | 0.32 | 0.00 | 97 | 1013.6 |
| 20260508080720 | 52 | 253 | 0.0 | 0.0 | 0.00 | 0.32 | 0.00 | 97 | 1013.5 |
| 20260508080000 | 52 | 253 | 0.0 | 0.0 | 0.00 | 0.32 | 0.00 | 97 | 1013.5 |
| 20260508075723 | 52 | 254 | 0.0 | 0.0 | 0.00 | 0.32 | 0.00 | 97 | 1013.5 |
| 20260508075004 | 52 | 254 | 0.0 | 0.0 | 0.00 | 0.32 | 0.00 | 97 | 1013.5 |
| 20260508074503 | 52 | 254 | 0.0 | 0.0 | 0.00 | 0.32 | 0.00 | 97 | 1013.3 |
| 20260508074003 | 52 | 254 | 0.0 | 0.0 | 0.00 | 0.32 | 0.00 | 97 | 1013.3 |
| 20260508073728 | 52 | 254 | 0.0 | 0.0 | 0.00 | 0.32 | 0.00 | 97 | 1013.2 |
| 20260508073005 | 52 | 254 | 0.0 | 0.0 | 0.00 | 0.32 | 0.00 | 97 | 1013.3 |
| 20260508072503 | 52 | 254 | 0.0 | 0.0 | 0.00 | 0.32 | 0.00 | 97 | 1013.2 |
| 20260508072003 | 52 | 254 | 0.0 | 0.0 | 0.00 | 0.32 | 0.00 | 97 | 1013.1 |
| 20260508071504 | 52 | 254 | 0.0 | 0.0 | 0.00 | 0.32 | 0.00 | 97 | 1013.2 |
| 20260508071004 | 52 | 254 | 0.0 | 0.0 | 0.00 | 0.32 | 0.00 | 97 | 1013.1 |
| 20260508070503 | 52 | 254 | 0.0 | 0.0 | 0.00 | 0.32 | 0.00 | 97 | 1013.0 |
| 20260508070229 | 52 | 251 | 0.0 | 0.0 | 0.00 | 0.32 | 0.00 | 97 | 1013.0 |
| 20260508065503 | 52 | 251 | 0.0 | 0.0 | 0.00 | 0.32 | 0.00 | 97 | 1013.1 |
| 20260508065446 | 52 | 251 | 0.0 | 0.0 | 0.00 | 0.32 | 0.00 | 97 | 1013.0 |
| 20260508064504 | 52 | 251 | 0.0 | 0.0 | 0.00 | 0.32 | 0.00 | 97 | 1013.0 |
| 20260508064004 | 52 | 251 | 0.0 | 0.0 | 0.00 | 0.32 | 0.00 | 97 | 1013.0 |
| 20260508063503 | 52 | 251 | 0.0 | 0.0 | 0.00 | 0.32 | 0.00 | 97 | 1013.1 |
| 20260508063003 | 52 | 251 | 0.0 | 0.0 | 0.00 | 0.32 | 0.00 | 97 | 1013.1 |
| 20260508062504 | 52 | 251 | 0.0 | 0.0 | 0.00 | 0.32 | 0.00 | 96 | 1013.0 |
| 20260508062004 | 52 | 251 | 0.0 | 0.0 | 0.00 | 0.32 | 0.00 | 97 | 1013.0 |
| 20260508061503 | 52 | 251 | 0.0 | 0.0 | 0.00 | 0.32 | 0.00 | 97 | 1013.1 |
| 20260508061003 | 52 | 251 | 0.0 | 0.0 | 0.00 | 0.32 | 0.00 | 97 | 1013.2 |
| 20260508060501 | 52 | 251 | 0.0 | 0.0 | 0.00 | 0.32 | 0.00 | 97 | 1013.2 |
| 20260508060001 | 52 | 251 | 0.0 | 0.0 | 0.00 | 0.32 | 0.00 | 97 | 1013.0 |
| 20260508055501 | 52 | 251 | 0.0 | 0.0 | 0.00 | 0.32 | 0.00 | 97 | 1013.0 |
| 20260508055224 | 52 | 251 | 0.0 | 0.0 | 0.00 | 0.32 | 0.00 | 96 | 1013.1 |
| 20260508054502 | 52 | 251 | 0.0 | 0.0 | 0.00 | 0.32 | 0.00 | 96 | 1013.1 |
| 20260508054224 | 52 | 251 | 0.0 | 0.0 | 0.00 | 0.32 | 0.00 | 96 | 1013.0 |
| 20260508053501 | 52 | 251 | 0.0 | 0.0 | 0.00 | 0.33 | 0.00 | 96 | 1013.0 |
| 20260508052959 | 52 | 251 | 0.0 | 0.0 | 0.00 | 0.34 | 0.00 | 96 | 1012.8 |
| 20260508052452 | 52 | 251 | 0.0 | 0.0 | 0.00 | 0.36 | 0.00 | 96 | 1012.9 |
| 20260508051946 | 52 | 251 | 0.0 | 0.0 | 0.00 | 0.38 | 0.00 | 96 | 1012.9 |
| 20260508051441 | 52 | 251 | 0.0 | 0.0 | 0.00 | 0.38 | 0.00 | 96 | 1013.0 |
| 20260508050939 | 52 | 251 | 0.0 | 0.0 | 0.00 | 0.38 | 0.00 | 96 | 1013.0 |
| 20260508050439 | 52 | 251 | 0.0 | 0.0 | 0.00 | 0.38 | 0.00 | 96 | 1012.8 |
| 20260508045937 | 53 | 250 | 0.0 | 0.0 | 0.00 | 0.40 | 0.00 | 96 | 1012.9 |
| 20260508045435 | 53 | 250 | 0.0 | 0.0 | 0.00 | 0.41 | 0.00 | 96 | 1013.0 |
| 20260508044935 | 53 | 250 | 0.0 | 0.0 | 0.00 | 0.43 | 0.00 | 96 | 1013.0 |
| 20260508044435 | 53 | 351 | 0.0 | 0.0 | 0.00 | 0.44 | 0.00 | 96 | 1012.9 |
| 20260508043935 | 53 | 351 | 0.0 | 0.0 | 0.00 | 0.45 | 0.00 | 96 | 1012.9 |
| 20260508043435 | 53 | 351 | 0.0 | 0.0 | 0.00 | 0.45 | 0.00 | 96 | 1012.7 |
| 20260508042933 | 54 | 351 | 0.0 | 0.0 | 0.00 | 0.45 | 0.00 | 96 | 1012.8 |
| 20260508042654 | 54 | 351 | 0.0 | 0.0 | 0.00 | 0.45 | 0.00 | 96 | 1012.7 |
| 20260508042149 | 54 | 351 | 0.0 | 0.0 | 0.00 | 0.45 | 0.00 | 96 | 1012.7 |
| 20260508041924 | 54 | 131 | 0.0 | 1.0 | 0.00 | 0.45 | 0.00 | 96 | 1012.6 |
| 20260508041156 | 54 | 131 | 0.0 | 1.0 | 0.00 | 0.45 | 0.00 | 96 | 1012.5 |
| 20260508040429 | 54 | 152 | 0.0 | 0.0 | 0.00 | 0.46 | 0.00 | 96 | 1012.3 |
| 20260508035929 | 54 | 152 | 0.0 | 0.0 | 0.00 | 0.46 | 0.46 | 96 | 1012.3 |
| 20260508035651 | 54 | 152 | 0.0 | 0.0 | 0.00 | 0.46 | 0.46 | 96 | 1012.3 |
| 20260508034930 | 54 | 152 | 0.0 | 0.0 | 0.00 | 0.46 | 0.46 | 96 | 1012.3 |
| 20260508034429 | 54 | 152 | 0.0 | 0.0 | 0.00 | 0.46 | 0.46 | 96 | 1012.4 |
| 20260508034151 | 54 | 152 | 0.0 | 0.0 | 0.00 | 0.46 | 0.46 | 96 | 1012.4 |
| 20260508033429 | 54 | 152 | 0.0 | 0.0 | 0.00 | 0.46 | 0.46 | 96 | 1012.3 |
| 20260508032931 | 54 | 152 | 0.0 | 0.0 | 0.00 | 0.47 | 0.46 | 96 | 1012.2 |
| 20260508032432 | 54 | 152 | 0.0 | 0.0 | 0.00 | 0.47 | 0.46 | 96 | 1012.3 |
| 20260508031931 | 54 | 152 | 0.0 | 0.0 | 0.00 | 0.47 | 0.46 | 96 | 1012.2 |
| 20260508031432 | 54 | 152 | 0.0 | 0.0 | 0.00 | 0.47 | 0.46 | 96 | 1012.2 |
| 20260508031157 | 54 | 151 | 0.0 | 0.0 | 0.00 | 0.47 | 0.46 | 96 | 1012.2 |
| 20260508030429 | 54 | 152 | 0.0 | 0.0 | 0.00 | 0.47 | 0.46 | 96 | 1012.2 |
| 20260508025929 | 54 | 151 | 0.0 | 0.0 | 0.00 | 0.47 | 0.46 | 96 | 1012.0 |
| 20260508025430 | 54 | 152 | 0.0 | 0.0 | 0.00 | 0.47 | 0.46 | 96 | 1011.9 |
| 20260508025146 | 54 | 151 | 0.0 | 0.0 | 0.00 | 0.47 | 0.46 | 96 | 1011.8 |
| 20260508024429 | 54 | 151 | 0.0 | 0.0 | 0.00 | 0.47 | 0.46 | 96 | 1011.9 |
| 20260508023929 | 54 | 151 | 0.0 | 0.0 | 0.00 | 0.47 | 0.46 | 96 | 1011.9 |
| 20260508023428 | 54 | 151 | 0.0 | 0.0 | 0.00 | 0.47 | 0.46 | 96 | 1011.8 |
| 20260508023147 | 54 | 151 | 0.0 | 0.0 | 0.00 | 0.47 | 0.46 | 96 | 1011.6 |
| 20260508022429 | 54 | 151 | 0.0 | 0.0 | 0.00 | 0.47 | 0.46 | 96 | 1011.6 |
| 20260508022149 | 54 | 151 | 0.0 | 0.0 | 0.00 | 0.47 | 0.46 | 96 | 1011.6 |
| 20260508021429 | 54 | 151 | 0.0 | 0.0 | 0.00 | 0.47 | 0.46 | 96 | 1011.5 |
| 20260508020928 | 54 | 151 | 0.0 | 0.0 | 0.00 | 0.47 | 0.46 | 96 | 1011.6 |
| 20260508020428 | 54 | 151 | 0.0 | 0.0 | 0.00 | 0.47 | 0.46 | 96 | 1011.6 |
| 20260508020151 | 54 | 151 | 0.0 | 0.0 | 0.00 | 0.47 | 0.46 | 96 | 1011.4 |
| 20260508015429 | 54 | 151 | 0.0 | 0.0 | 0.00 | 0.47 | 0.46 | 96 | 1011.3 |
| 20260508014929 | 54 | 151 | 0.0 | 0.0 | 0.00 | 0.47 | 0.46 | 96 | 1011.2 |
| 20260508014429 | 54 | 151 | 0.0 | 0.0 | 0.00 | 0.47 | 0.46 | 96 | 1011.1 |
| 20260508013929 | 54 | 152 | 0.0 | 0.0 | 0.00 | 0.47 | 0.46 | 96 | 1011.1 |
| 20260508013429 | 54 | 152 | 0.0 | 0.0 | 0.00 | 0.47 | 0.46 | 96 | 1010.9 |
| 20260508012929 | 54 | 152 | 0.0 | 0.0 | 0.00 | 0.47 | 0.46 | 96 | 1010.8 |
| 20260508012429 | 54 | 152 | 0.0 | 0.0 | 0.00 | 0.47 | 0.46 | 96 | 1011.1 |
| 20260508011929 | 54 | 152 | 0.0 | 0.0 | 0.00 | 0.47 | 0.46 | 96 | 1010.9 |
| 20260508011653 | 54 | 229 | 0.0 | 0.0 | 0.00 | 0.47 | 0.46 | 96 | 1010.9 |
| 20260508010928 | 54 | 229 | 0.0 | 0.0 | 0.00 | 0.47 | 0.46 | 95 | 1010.9 |
| 20260508010429 | 54 | 229 | 0.0 | 0.0 | 0.00 | 0.47 | 0.46 | 95 | 1010.8 |
| 20260508005930 | 54 | 229 | 0.0 | 1.0 | 0.00 | 0.47 | 0.46 | 95 | 1010.7 |
| 20260508005429 | 54 | 229 | 0.0 | 1.0 | 0.00 | 0.47 | 0.46 | 95 | 1010.6 |
| 20260508004929 | 54 | 238 | 0.0 | 0.0 | 0.00 | 0.47 | 0.46 | 95 | 1010.4 |
| 20260508004428 | 54 | 238 | 0.0 | 0.0 | 0.00 | 0.47 | 0.46 | 95 | 1010.3 |
| 20260508003928 | 54 | 237 | 0.0 | 0.0 | 0.00 | 0.47 | 0.46 | 95 | 1010.4 |
| 20260508003431 | 54 | 234 | 0.0 | 0.0 | 0.00 | 0.47 | 0.46 | 95 | 1010.4 |
| 20260508002930 | 54 | 235 | 0.0 | 0.0 | 0.00 | 0.47 | 0.46 | 95 | 1010.4 |
| 20260508002429 | 54 | 233 | 0.0 | 0.0 | 0.00 | 0.47 | 0.46 | 95 | 1010.3 |
| 20260508001929 | 54 | 233 | 0.0 | 0.0 | 0.00 | 0.47 | 0.46 | 95 | 1010.3 |
| 20260508001430 | 54 | 84 | 0.0 | 0.0 | 0.00 | 0.48 | 0.46 | 95 | 1010.7 |
| 20260508000933 | 54 | 84 | 0.0 | 0.0 | 0.00 | 0.48 | 0.46 | 95 | 1010.4 |
| 20260508000431 | 54 | 84 | 0.0 | 0.0 | 0.00 | 0.48 | 0.46 | 95 | 1010.4 |
| 20260507235931 | 54 | 82 | 0.0 | 0.0 | 0.00 | 0.48 | 0.46 | 95 | 1010.4 |
| 20260507235431 | 54 | 82 | 0.0 | 0.0 | 0.00 | 0.48 | 0.46 | 95 | 1010.2 |
| 20260507234931 | 54 | 82 | 0.0 | 1.0 | 0.00 | 0.48 | 0.46 | 94 | 1010.0 |
| 20260507234432 | 54 | 78 | 0.0 | 1.0 | 0.00 | 0.48 | 0.46 | 94 | 1009.8 |
| 20260507233934 | 55 | 282 | 0.0 | 0.0 | 0.00 | 0.48 | 0.46 | 94 | 1009.8 |
| 20260507233430 | 55 | 67 | 0.0 | 0.0 | 0.00 | 0.48 | 0.46 | 94 | 1009.6 |
| 20260507233149 | 55 | 292 | 0.0 | 2.0 | 0.00 | 0.48 | 0.46 | 94 | 1009.2 |
| 20260507232652 | 55 | 292 | 0.0 | 2.0 | 0.00 | 0.48 | 0.46 | 94 | 1009.2 |
| 20260507231931 | 55 | 239 | 0.0 | 1.0 | 0.00 | 0.48 | 0.46 | 94 | 1009.2 |
| 20260507231431 | 55 | 26 | 0.0 | 1.0 | 0.00 | 0.48 | 0.46 | 94 | 1009.2 |
| 20260507230931 | 55 | 239 | 0.0 | 1.0 | 0.00 | 0.48 | 0.46 | 94 | 1009.2 |
| 20260507230433 | 55 | 231 | 0.0 | 1.0 | 0.00 | 0.48 | 0.46 | 94 | 1009.1 |
| 20260507225931 | 55 | 128 | 0.0 | 1.0 | 0.00 | 0.48 | 0.46 | 94 | 1009.4 |
| 20260507225657 | 55 | 281 | 0.0 | 1.0 | 0.00 | 0.48 | 0.46 | 94 | 1009.1 |
| 20260507224931 | 55 | 313 | 0.0 | 1.0 | 0.00 | 0.48 | 0.46 | 94 | 1009.0 |
| 20260507224431 | 55 | 334 | 0.0 | 2.0 | 0.00 | 0.48 | 0.46 | 94 | 1009.1 |
| 20260507224144 | 55 | 224 | 0.0 | 5.0 | 0.00 | 0.48 | 0.46 | 94 | 1009.2 |
| 20260507224136 | 55 | 114 | 0.0 | 3.0 | 0.00 | 0.48 | 0.46 | 94 | 1009.2 |
| 20260507223417 | 55 | 250 | 0.0 | 5.0 | 0.00 | 0.48 | 0.46 | 94 | 1009.4 |
| 20260507222431 | 55 | 253 | 0.0 | 3.0 | 0.00 | 0.48 | 0.46 | 94 | 1009.6 |
| 20260507222156 | 55 | 81 | 0.0 | 6.0 | 0.00 | 0.48 | 0.46 | 94 | 1009.5 |
| 20260507221433 | 55 | 253 | 0.0 | 6.0 | 0.00 | 0.48 | 0.46 | 94 | 1009.7 |
| 20260507220932 | 55 | 43 | 0.0 | 3.0 | 0.00 | 0.48 | 0.46 | 94 | 1009.5 |
| 20260507220430 | 55 | 235 | 0.0 | 4.0 | 0.00 | 0.48 | 0.46 | 94 | 1009.3 |
| 20260507215932 | 55 | 104 | 0.0 | 4.0 | 0.00 | 0.48 | 0.46 | 95 | 1009.2 |
| 20260507215431 | 55 | 253 | 0.0 | 3.0 | 0.00 | 0.48 | 0.46 | 95 | 1009.3 |
| 20260507214931 | 55 | 262 | 0.0 | 3.0 | 0.00 | 0.48 | 0.46 | 95 | 1009.3 |
| 20260507214431 | 55 | 38 | 0.0 | 3.0 | 0.00 | 0.48 | 0.46 | 95 | 1009.3 |
| 20260507213931 | 55 | 258 | 0.0 | 4.0 | 0.00 | 0.48 | 0.46 | 95 | 1009.2 |
| 20260507213431 | 55 | 300 | 0.0 | 4.0 | 0.00 | 0.48 | 0.46 | 95 | 1009.1 |
| 20260507212931 | 55 | 356 | 0.0 | 2.0 | 0.00 | 0.48 | 0.46 | 95 | 1009.0 |
| 20260507212641 | 55 | 62 | 0.0 | 4.0 | 0.00 | 0.48 | 0.46 | 95 | 1009.0 |
| 20260507212625 | 55 | 269 | 0.0 | 2.0 | 0.00 | 0.48 | 0.46 | 95 | 1009.0 |
| 20260507211431 | 55 | 112 | 0.0 | 4.0 | 0.00 | 0.48 | 0.46 | 95 | 1009.0 |
| 20260507210931 | 55 | 260 | 1.0 | 4.0 | 0.00 | 0.48 | 0.46 | 95 | 1009.0 |
| 20260507210431 | 55 | 276 | 1.0 | 4.0 | 0.00 | 0.48 | 0.46 | 94 | 1009.0 |
| 20260507205930 | 55 | 67 | 1.0 | 3.0 | 0.00 | 0.48 | 0.46 | 94 | 1008.8 |
| 20260507205431 | 55 | 67 | 1.0 | 7.0 | 0.00 | 0.48 | 0.46 | 95 | 1008.8 |
| 20260507204932 | 55 | 244 | 0.0 | 7.0 | 0.00 | 0.48 | 0.46 | 95 | 1008.7 |
| 20260507204431 | 55 | 307 | 0.0 | 2.0 | 0.00 | 0.48 | 0.46 | 95 | 1008.7 |
| 20260507203930 | 55 | 357 | 0.0 | 3.0 | 0.00 | 0.48 | 0.46 | 95 | 1008.7 |
| 20260507203651 | 55 | 66 | 1.0 | 7.0 | 0.00 | 0.48 | 0.46 | 95 | 1008.9 |
| 20260507202931 | 54 | 57 | 1.0 | 7.0 | 0.00 | 0.48 | 0.46 | 95 | 1008.7 |
| 20260507202656 | 54 | 73 | 1.0 | 7.0 | 0.00 | 0.48 | 0.46 | 95 | 1008.7 |
| 20260507201931 | 54 | 274 | 1.0 | 7.0 | 0.00 | 0.48 | 0.46 | 96 | 1008.7 |
| 20260507201432 | 54 | 63 | 1.0 | 8.0 | 0.01 | 0.48 | 0.46 | 96 | 1008.4 |
| 20260507200931 | 54 | 233 | 1.0 | 8.0 | 0.01 | 0.48 | 0.46 | 96 | 1008.6 |
| 20260507200431 | 54 | 60 | 1.0 | 4.0 | 0.02 | 0.48 | 0.46 | 96 | 1008.8 |
| 20260507200412 | 54 | 223 | 0.0 | 4.0 | 0.02 | 0.48 | 0.46 | 96 | 1008.8 |
| 20260507195658 | 55 | 25 | 0.0 | 4.0 | 0.02 | 0.48 | 0.46 | 96 | 1008.5 |
| 20260507194931 | 55 | 352 | 0.0 | 5.0 | 0.02 | 0.48 | 0.46 | 96 | 1008.7 |
| 20260507194431 | 55 | 293 | 1.0 | 5.0 | 0.02 | 0.48 | 0.46 | 96 | 1008.7 |
| 20260507193931 | 55 | 181 | 1.0 | 5.0 | 0.02 | 0.48 | 0.46 | 96 | 1008.8 |
| 20260507193431 | 55 | 256 | 1.0 | 5.0 | 0.02 | 0.48 | 0.46 | 96 | 1008.9 |
| 20260507192931 | 55 | 299 | 0.0 | 4.0 | 0.02 | 0.48 | 0.46 | 96 | 1009.0 |
| 20260507192429 | 55 | 95 | 1.0 | 5.0 | 0.02 | 0.48 | 0.46 | 96 | 1008.9 |
| 20260507191929 | 55 | 280 | 1.0 | 6.0 | 0.02 | 0.48 | 0.46 | 96 | 1008.8 |
| 20260507191430 | 55 | 100 | 1.0 | 6.0 | 0.01 | 0.47 | 0.45 | 96 | 1008.6 |
| 20260507191145 | 55 | 86 | 1.0 | 6.0 | 0.01 | 0.47 | 0.45 | 96 | 1008.5 |
| 20260507190649 | 55 | 321 | 1.0 | 5.0 | 0.00 | 0.46 | 0.44 | 96 | 1008.4 |
| 20260507185929 | 55 | 81 | 1.0 | 5.0 | 0.00 | 0.46 | 0.44 | 96 | 1008.3 |
| 20260507185651 | 55 | 314 | 1.0 | 10.0 | 0.00 | 0.46 | 0.44 | 96 | 1008.2 |
| 20260507184929 | 56 | 254 | 1.0 | 10.0 | 0.00 | 0.46 | 0.44 | 96 | 1008.3 |
| 20260507184429 | 56 | 95 | 0.0 | 4.0 | 0.01 | 0.46 | 0.44 | 96 | 1008.3 |
| 20260507183931 | 56 | 73 | 1.0 | 5.0 | 0.01 | 0.46 | 0.44 | 96 | 1008.3 |
| 20260507183429 | 56 | 203 | 1.0 | 6.0 | 0.01 | 0.46 | 0.44 | 96 | 1008.1 |
| 20260507182930 | 56 | 41 | 2.0 | 8.0 | 0.01 | 0.46 | 0.44 | 96 | 1007.9 |
| 20260507182429 | 57 | 70 | 1.0 | 8.0 | 0.01 | 0.46 | 0.44 | 96 | 1007.9 |
| 20260507181929 | 57 | 306 | 0.0 | 6.0 | 0.01 | 0.46 | 0.44 | 96 | 1008.0 |
| 20260507181428 | 57 | 278 | 0.0 | 4.0 | 0.01 | 0.46 | 0.44 | 96 | 1008.0 |
| 20260507180928 | 57 | 218 | 1.0 | 7.0 | 0.01 | 0.46 | 0.44 | 96 | 1008.2 |
| 20260507180646 | 57 | 221 | 0.0 | 7.0 | 0.02 | 0.46 | 0.44 | 96 | 1007.8 |
| 20260507175929 | 57 | 256 | 0.0 | 5.0 | 0.03 | 0.46 | 0.44 | 96 | 1008.0 |
| 20260507175917 | 57 | 253 | 1.0 | 5.0 | 0.03 | 0.46 | 0.44 | 96 | 1008.6 |
| 20260507174929 | 57 | 232 | 1.0 | 5.0 | 0.02 | 0.45 | 0.44 | 96 | 1008.9 |
| 20260507174430 | 57 | 284 | 1.0 | 5.0 | 0.03 | 0.45 | 0.43 | 96 | 1009.1 |
| 20260507174148 | 57 | 339 | 1.0 | 6.0 | 0.03 | 0.45 | 0.43 | 96 | 1008.5 |
| 20260507173429 | 58 | 283 | 1.0 | 6.0 | 0.03 | 0.45 | 0.43 | 96 | 1008.4 |
| 20260507172928 | 58 | 326 | 0.0 | 5.0 | 0.03 | 0.45 | 0.43 | 96 | 1008.1 |
| 20260507172428 | 58 | 342 | 1.0 | 5.0 | 0.04 | 0.45 | 0.43 | 96 | 1007.8 |
| 20260507171930 | 59 | 83 | 1.0 | 8.0 | 0.04 | 0.45 | 0.43 | 96 | 1007.8 |
| 20260507171657 | 59 | 324 | 1.0 | 8.0 | 0.04 | 0.45 | 0.43 | 96 | 1007.5 |
| 20260507170929 | 59 | 278 | 1.0 | 10.0 | 0.04 | 0.45 | 0.43 | 96 | 1007.4 |
| 20260507170430 | 59 | 294 | 1.0 | 10.0 | 0.03 | 0.44 | 0.42 | 96 | 1007.7 |
| 20260507165929 | 60 | 53 | 1.0 | 6.0 | 0.02 | 0.43 | 0.41 | 96 | 1008.2 |
| 20260507165656 | 60 | 221 | 1.0 | 6.0 | 0.02 | 0.43 | 0.41 | 96 | 1007.7 |
| 20260507164929 | 60 | 273 | 1.0 | 6.0 | 0.03 | 0.43 | 0.41 | 96 | 1007.9 |
| 20260507164429 | 61 | 80 | 1.0 | 6.0 | 0.04 | 0.42 | 0.40 | 96 | 1008.2 |
| 20260507163929 | 62 | 26 | 2.0 | 9.0 | 0.04 | 0.42 | 0.40 | 95 | 1008.2 |
| 20260507163429 | 63 | 45 | 2.0 | 10.0 | 0.05 | 0.42 | 0.40 | 95 | 1008.6 |
| 20260507162930 | 66 | 74 | 0.0 | 10.0 | 0.06 | 0.42 | 0.40 | 96 | 1008.6 |
| 20260507162429 | 67 | 285 | 0.0 | 2.0 | 0.05 | 0.41 | 0.39 | 98 | 1008.4 |
| 20260507161928 | 66 | 87 | 0.0 | 2.0 | 0.06 | 0.41 | 0.39 | 97 | 1008.3 |
| 20260507161647 | 67 | 74 | 0.0 | 3.0 | 0.07 | 0.41 | 0.39 | 97 | 1008.3 |
| 20260507160929 | 67 | 90 | 0.0 | 3.0 | 0.07 | 0.41 | 0.39 | 97 | 1008.4 |
| 20260507160429 | 67 | 102 | 0.0 | 2.0 | 0.08 | 0.41 | 0.39 | 97 | 1008.3 |
| 20260507155928 | 67 | 258 | 0.0 | 1.0 | 0.09 | 0.41 | 0.39 | 98 | 1008.4 |
| 20260507155652 | 67 | 89 | 0.0 | 1.0 | 0.10 | 0.41 | 0.39 | 98 | 1008.4 |
| 20260507154933 | 67 | 83 | 0.0 | 0.0 | 0.10 | 0.40 | 0.39 | 98 | 1008.2 |
| 20260507154431 | 67 | 83 | 0.0 | 0.0 | 0.10 | 0.38 | 0.37 | 98 | 1007.9 |
| 20260507153931 | 67 | 97 | 0.0 | 0.0 | 0.11 | 0.38 | 0.36 | 98 | 1007.8 |